Location: Laas
(43.4693°N, 0.3073°E)
Time: 15:27:23
(UTC+00:00)

H-2A R/B - Pass Details

Date: 25 October 2020
Orbit: 733 x 837 km, 98.2° (Epoch: 24 November)

Event Time Altitude Azimuth Distance (km) Brightness Sun altitude
Exits shadow 18:20:31 - 145° (SE) 3,222 4.9 -15.3°
Reaches altitude 10° 18:22:37 10° 140° (SE) 2,419 4.2 -15.7°
Maximum altitude 18:27:42 45° 69° (ENE) 1,133 2.4 -16.6°
Drops below altitude 10° 18:32:52 10° 359° (N) 2,460 4.6 -17.6°
Sets 18:35:20 0° 353° (N) 3,399 5.4 -18.0°
